Regional Weather Roundup
Issued by NWS

Home | Current Version | Previous Version | Graphics & Text | Print | Product List | Glossary On
Versions: 1 2 3 4 5 6 7 8 9 10 11 12 13 14 15 16 17 18 19 20 21 22 23 24 25 26 27 28 29 30 31 32 33 34 35 36 37 38 39 40 41 42 43 44 45 46 47 48 49 50
000
ASUS45 KCYS 292310
RWRWY

WYOMING REGIONAL WEATHER ROUNDUP
NATIONAL WEATHER SERVICE CHEYENNE WY
500 PM MDT WED MAR 29 2017

NOTE:  "FAIR" INDICATES FEW OR NO CLOUDS BELOW 12,000 FEET
WITH NO SIGNIFICANT WEATHER AND/OR OBSTRUCTIONS TO VISIBILITY.

WYZ001-300000-
YELLOWSTONE NATIONAL PARK

CITY           SKY/WX    TMP DP  RH WIND       PRES   REMARKS
LK YELLOWSTONE   N/A     34  28  79 VRB3      30.11S
W YELLOWSTONE  NOT AVBL

$$
WYZ002>013-054>058-071-098>099-300000-
NORTHERN WYOMING

CITY           SKY/WX    TMP DP  RH WIND       PRES   REMARKS
JACKSON        PTSUNNY   43  30  61 W10       30.09F
CODY           FAIR      56  26  31 W16G28    29.92F
GREYBULL       FAIR      60  27  28 SE8       29.90F
WORLAND        FAIR      59  33  37 VRB7      29.91F
SHERIDAN       FAIR      61  31  32 N5        29.89F
BUFFALO        FAIR      59  26  28 E10       29.92F
GILLETTE       FAIR      59  24  26 W5        29.93F
HULETT         FAIR      57  28  33 CALM      29.94F
NEWCASTLE      FAIR      57  27  30 N9G18     29.95F

$$
WYZ014>020-022>026-101>103-300000-
CENTRAL WYOMING

CITY           SKY/WX    TMP DP  RH WIND       PRES   REMARKS
BIG PINEY      PTSUNNY   53  25  33 N14       30.08F
PINEDALE       FAIR      46  21  36 NW12      30.10F
DUBOIS         CLOUDY    50  25  37 NW20G32   30.01S
LANDER         FAIR      57  31  37 S6        29.94F
RIVERTON       FAIR      57  29  34 S8        29.94F
CASPER         FAIR      57  26  30 W10G20    29.95F
DOUGLAS        FAIR      58  26  29 W12       29.96F

$$
WYZ021-027>030-104>119-300000-
SOUTHERN WYOMING

CITY           SKY/WX    TMP DP  RH WIND       PRES   REMARKS
EVANSTON       FAIR      51  25  36 W15       30.13F
KEMMERER         N/A     45  28  53 W15       30.12F
FORT BRIDGER   FAIR      55  27  34 W13G23    30.14F
ROCK SPRINGS   FAIR      51  28  41 W21G31    30.07F
DIXON            N/A     53  22  29 SW9       30.09F
RAWLINS        FAIR      52  25  35 W20       30.04F
SARATOGA       FAIR      52  21  30 W9G31     30.06S
LARAMIE        FAIR      50  23  34 NW20G28   30.00F
CHEYENNE       FAIR      53  25  33 NW18G28   29.98F
TORRINGTON     FAIR      60  25  26 N8        29.93F
PINE BLUFFS    FAIR      54  30  40 N18G24    29.97F

$$



USA.gov is the U.S. government's official web portal to all federal, state and local government web resources and services.